Location: Albany
(35.0000°S, 118.0000°E)
Time: 03:30:51
(UTC-05:00)

ERS-1 Rocket - Visible Passes

Search period start: 21 January 2017 00:00
Search period end: 31 January 2017 00:00
Orbit: 753 x 758 km, 98.6° (Epoch: 20 January)

Date Brightness Start Highest point End Pass type
(mag) Time Alt. Az. Time Alt. Az. Time Alt. Az.
21 Jan 3.0 08:14:22 10° SSE 08:19:25 61° E 08:20:55 42° NNE visible
21 Jan 5.6 09:55:02 10° SSW 09:57:36 14° WSW 10:00:10 10° W visible
22 Jan 4.1 07:35:44 10° SE 07:39:47 24° E 07:40:54 22° ENE visible
22 Jan 4.5 09:14:01 10° S 09:18:33 33° WSW 09:20:54 22° WNW visible
23 Jan 2.9 08:34:09 10° SSE 08:39:16 84° WSW 08:40:53 45° NNW visible
24 Jan 3.5 07:55:03 10° SSE 07:59:45 37° E 08:00:51 33° NE visible
24 Jan 5.1 09:34:25 10° SSW 09:38:14 22° WSW 09:40:51 15° WNW visible
25 Jan 4.6 07:17:14 10° ESE 07:20:01 15° E 07:20:49 14° ENE visible
25 Jan 3.6 08:54:07 10° S 08:59:04 53° WSW 09:00:49 36° NW visible
26 Jan 3.0 08:14:37 10° SSE 08:19:40 61° ENE 08:20:47 48° NNE visible
26 Jan 5.6 09:55:16 10° SSW 09:57:51 14° WSW 10:00:26 10° W visible
27 Jan 4.1 07:36:00 10° SE 07:40:02 24° E 07:40:44 23° ENE visible
27 Jan 4.4 09:14:15 10° S 09:18:48 34° WSW 09:20:45 25° WNW visible
28 Jan 2.9 08:34:25 10° SSE 08:39:31 85° WSW 08:40:43 54° NNW visible
29 Jan 3.5 07:55:18 10° SSE 08:00:00 37° E 08:00:39 36° ENE visible
29 Jan 5.1 09:34:39 10° SSW 09:38:29 22° WSW 09:40:39 17° W visible
30 Jan 4.6 07:17:30 10° ESE 07:20:16 15° E 07:20:37 15° E visible
30 Jan 3.6 08:54:21 10° S 08:59:19 53° WSW 09:00:37 42° WNW visible
